Tracking 20621 objects as of 31-Mar-2020
HD Live streaming from Space Station
objects crossing your sky now

COSMOS 1141

Track COSMOS 1141 now!
10-day predictions
COSMOS 1141 is classified as:


NORAD ID: 11585
Int'l Code: 1979-090A
Perigee: 960.0 km
Apogee: 1,003.7 km
Inclination: 82.9 °
Period: 104.6 minutes
Semi major axis: 7352 km
RCS: 2.1289 m2 (large)
Launch date: October 16, 1979
Source: Commonwealth of Independent States (former USSR) (CIS)
Launch site: PLESETSK MISSILE AND SPACE COMPLEX (PKMTR)
aabbcc
Your satellite tracking list
Your tracking list is empty




NASA's NSSDC Master Catalog

Two Line Element Set (TLE):
1 11585U 79090A   20090.71912568 +.00000012 +00000-0 -37675-5 0  9992
2 11585 082.9460 076.5267 0029688 012.3098 160.3795 13.76950297013307
Source of the keplerian elements: AFSPC